Location: Cheadle
(51.0146°N, 113.5417°W)
Time: 08:52:58
(UTC+00:00)

ITUPSAT 1 - Visible Passes

Search period start: 08 December 2023 00:00
Search period end: 18 December 2023 00:00
Orbit: 697 x 707 km, 98.5° (Epoch: 07 December)

Date Brightness Start Highest point End Pass type
(mag) Time Alt. Az. Time Alt. Az. Time Alt. Az.
09 Dec ? 14:37:37 10° E 14:40:39 17° NE 14:43:42 10° NNE visible
11 Dec ? 14:26:07 10° E 14:28:31 14° NE 14:30:56 10° NNE visible
13 Dec ? 14:14:57 10° ENE 14:16:25 11° NE 14:17:52 10° NNE visible
16 Dec ? 14:43:08 10° E 14:46:22 18° NE 14:49:36 10° NNE visible
